Погода Красный Яр

Погода Красный Яр : погода сейчас, прогноз погоды и архив. Всё, что Вы хотите узнать о погоде Красный Яр!

Хотите узнать прогноз погоды Красный Яр? Тогда Вам сюда: Погода Красный Яр

Поиск расширенной информации на нашем сайте:

Другие новости

Новости СМИ2

Главная страница сайта

Новости сайта

03.07.2017

Напоминаем, что на нашем специализированном сайте Метеоцентр.Азия вы можете получить высокодетализированные автоматические прогнозы погоды по пунктам России, СНГ и мира в авиационном формате (включающие направление и скорость ветра, видимость, явления погоды, количество и форму облачности, нижнюю и верхнюю границу облачности).


Погода Красный Яр - сегодня

Время (UTC), дата Ветер
(°,м/с) 
Видим.   Явления Облачность Т
(°С)
Тd
(°С)
f(%) Тe
(°С)
Pmin
(гПа)
dP
(гПа)
Po
(мм)
O2
(г/м3)
Тmin Tmax R s Состояние
почвы
06 19.02.18 260 (З) 20000 м    4/0 верхняя 
[Cc]
-9.9 -21.9 37 -13  1016.7  -1.6  750  315           
09 19.02.18 260 (З) 20000 м    ясно 
-14.9 -22.6 52 -15  1017.3  0.3  750  321    -9.4       
12 19.02.18 тихо ()   20000 м    ясно 
-21.7 -24.8 76 -22  1018.2  0.4  750  330           
15 19.02.18 тихо ()   20000 м    ясно 
-25.4 -28.3 77 -25  1017.8  -0.7  750  335           
18 19.02.18 тихо ()   20000 м    ясно 
-25.6 -28.6 76 -26  1016.4  -1.4  749  335           
00 20.02.18 250 (З) 20000 м    9/3 600 м средняя, верхняя 
[Sc|Ac trans|Ci fib]
-15.6 -20.7 65 -18  1016.3  1.5  749  322           
03 20.02.18 280 (З) 20000 м    9/6 600 м кучево-дожд., верхняя 
[Cb cap|Ci fib]
-12.6 -22.1 45 -17  1015.5  -0.6  749  318           
12 20.02.18 тихо ()   20000 м    ясно 
-23 -26.3 74 -23  1018.7  1.3  751  332           
15 20.02.18 тихо ()   20000 м    ясно 
-27.7 -30.8 75 -28  1018.5  -0.5  750  338           
18 20.02.18 тихо ()   20000 м    ясно 
-30.8 -33.9 74 -31  1018.9  0.2  750  343           
00 21.02.18 тихо ()   20000 м    ясно 
-22.9 -26.2 74 -23  1020.2  0.5  752  332  -34.4         
03 21.02.18 240 (ЮЗ) 20000 м    1/1 600 м 
[Sc]
-11.9 -23.1 39 -15  1018  -1.4  751  318           
06 21.02.18 260 (З) 20000 м    3/3 600 м 
[Sc]
-10 -23.7 32 -14  1016.4  -1.5  750  315           
09 21.02.18 280 (З) 20000 м    ясно 
-14.9 -24 46 -17  1017.4  0.7  750  321    -9.7       
12 21.02.18 тихо ()   20000 м    ясно 
-24 -28 69 -24  1019  0.9  751  333           
15 21.02.18 тихо ()   20000 м    ясно 
-25.6 -28.5 77 -26  1018.4  -0.7  750  335           
18 21.02.18 тихо ()   20000 м    10/0 средняя 
[Ac As]
-21.4 -25.6 69 -21  1017.1  -0.9  750  329           
00 22.02.18 050 (СВ) 4000 м  слаб. снег  10/0 средняя, верхняя 
[As op|Cs]
-16.1 -19.4 76 -16  1016.7  0.4  750  322           
03 22.02.18 080 (В) 20000 м  {снег}  8/8 600 м кучево-дожд. 
[Cb cap]
-8.5 -14.4 62 -8  1014.7  -1.4  749  313           
06 22.02.18 210 (ЮЗ) 20000 м  {снег}  9/9 600 м кучево-дожд. 
[Cb cap]
-5.6 -16.2 43 -5  1013.2  -1.4  747  309           
09 22.02.18 тихо ()   4000 м  слаб. ливневой снег  10/10 600 м кучево-дожд. 
[Cb cap]
-8.2 -9.9 88 -8  1014.8  1.4  749  312    -4.9  0.3     
12 22.02.18 тихо ()   20000 м  {ливн. осадки}  ясно 
-14.7 -16.1 89 -15  1016.2  749  320           
15 22.02.18 тихо ()   20000 м    ясно 
-17.8 -19.9 84 -18  1017.4  750  325           
18 22.02.18 тихо ()   20000 м    ясно 
-18 -20.2 83 -18  1017.5  0.1  750  325           
00 23.02.18 тихо ()   20000 м    8/0 средняя 
[Ac trans]
-16.1 -18.3 83 -16  1019.5  1.4  752  323  -20.1         
Время (UTC), дата Ветер
(°,м/с) 
Видим.   Явления Облачность Т
(°С)
Тd
(°С)
f(%) Тe
(°С)
Pmin
(гПа)
dP
(гПа)
Po
(мм)
O2
(г/м3)
Тmin Tmax R s Состояние
почвы

Для получения пояснительной информации подведите курсор к названию столбца.

ПОГОДА Красный Яр - архив

Всё, что Вы хотите узнать о погоде Красный Яр - удобно и подробно!

Выберите нужную дату (начиная с 1 января 2015* года) и нажмите кнопку "Найти".
Будут отображены архивные сводки погоды по пункту Красный Яр, начиная с указанной даты.


Отображать данные в формате CSV (для использования в таблицах Excel)


Внимание! Наш архив погоды предназначен исключительно для личного некоммерческого использования в познавательных целях. Если Вам необходимы официальные справки о состоянии погоды (для производственных, юридических, коммерческих и т.п. целей), обращайтесь в органы Росгидромета.

*Примечание: данная дата относится к архиву по метеостанциям СССР (Россия, СНГ, Балтия).
Архив по метеостанциям Зарубежной Европы и Азии (кроме Китая) хранится 10 дней, по другим регионам земного шара (Китай, Африка, Америка, Австралия, Океания) - 1 день.

Красный Яр - район местоположения метеостанции


Название, широта, долгота, высота метеостанции:
Красный Яр 46.5°ш. 135.3°д. 130 м над ур. моря [Российская Федерация]

Дополнительная информация

В oтличие oт бoльшинства пoгoдных сайтoв мы публикуем пoдрoбную метеoинфoрмацию в детальнoм прoфессиoнальнoм фoрмате.

Характеристики температуры и влажнoсти вoздуха измеряются на высoте 2 м в тени вдали oт зданий и деревьев.
Скoрoсть ветра измеряется на высoте 10 м (на урoвне рoста челoвека скoрoсть ветра ниже в 1.5-2 раза). Если метеoстанция нахoдится в гoрoде или в лесу, тo скoрoсть ветра занижена на 2-4 м/с пo сравнению с oткрытым местoм. Скoрoсть ветра над акватoриями крупных рек и oзёр, а также на вершинах хoлмoв на 2-5 м/с выше, чем в oбычных услoвиях.
Атмoсфернoе давление в разных тoчках местнoсти мoжет значительнo oтличаться oт давления на метеoстанции, в зависимoсти oт услoвий рельефа (при пoдъёме на 10 м давление пoнижается примернo на 1 мм рт.ст.).